Temp
85 96 102 101 85 90 81 83 88 85 88 93 94 91 87 89 83 68 96 99 101 92 89 88 81 81 81 80 80 79 79 80 80 79 79 79 79 79 79 79 79 79 80 80 80 80 80 80 80
103 104 103 96 84 78 80 89 85 90 91 94 91 92 90 84 92 89 92 98 98 94 91 89 81 81 80 80 79 79 79 79 79 79 78 78 79 79 79 79 79 79 80 80 79 79 79 79 79
96 104 93 91 89 81 80 88 90 92 93 91 90 93 92 86 92 92 98 99 99 94 93 86 80 80 80 80 79 79 79 79 79 79 79 79 79 79 79 79 79 80 80 79 79 79 79 79 79
101 100 97 86 84 89 87 89 92 92 92 93 93 87 90 93 92 96 98 99 97 96 95 82 80 80 80 80 79 79 79 79 79 79 79 78 78 78 78 79 79 79 79 79 79 78 78 78 78
102 97 87 86 86 89 94 92 93 89 89 93 93 86 85 92 97 97 98 99 97 99 93 88 79 79 80 80 80 79 79 78 79 79 78 78 78 78 78 78 78 78 78 78 78 78 77 77 77
93 97 84 83 86 89 94 95 94 93 94 93 90 89 86 94 94 97 100 100 101 99 96 88 80 79 79 80 79 78 78 78 79 78 78 78 78 78 78 78 78 78 78 78 78 77 77 76 76
90 91 85 88 86 87 91 97 94 92 93 92 96 89 87 91 97 99 100 102 102 101 98 93 90 83 79 78 78 78 78 78 78 78 78 78 78 78 78 77 77 77 77 77 76 76 76 76 75
97 93 86 88 86 85 92 95 96 94 90 99 99 86 83 92 98 100 101 101 102 101 101 98 93 92 90 87 78 78 78 78 77 77 77 78 78 78 77 76 77 77 76 76 76 76 75 76 76
99 86 84 88 85 89 96 94 98 99 95 95 96 95 97 97 99 98 98 99 100 100 100 101 97 95 96 94 84 79 78 78 77 78 77 78 90 86 85 76 76 76 76 76 76 76 76 76 77
91 86 88 94 94 92 94 94 95 93 94 93 94 96 98 96 96 95 95 95 97 96 99 101 96 97 98 96 87 89 88 88 87 88 86 90 86 85 85 79 76 76 76 76 76 77 78 79 90
92 86 93 92 94 96 94 95 98 93 92 96 94 94 94 94 94 94 95 96 96 97 97 99 94 94 97 96 92 93 92 90 88 87 87 85 87 87 88 84 83 83 78 85 83 86 87 86 88
87 92 92 94 95 94 93 97 93 95 95 100 99 99 95 92 93 94 94 94 95 93 94 95 93 92 93 95 93 93 92 90 91 87 85 84 86 85 83 85 87 85 87 85 86 84 82 84 85
87 90 92 95 95 96 96 94 94 96 101 103 98 100 95 95 95 97 97 96 95 92 91 91 91 89 90 90 92 92 89 90 87 88 85 86 85 81 83 83 85 85 87 85 85 83 84 83 84
91 91 92 94 95 96 92 93 94 97 100 100 97 98 97 96 96 96 96 94 93 93 90 91 91 88 89 88 87 87 86 85 86 84 82 84 84 81 84 83 85 85 85 86 85 84 84 85 84
91 85 90 92 93 92 94 88 90 99 98 97 95 96 98 97 97 95 96 94 95 94 91 88 88 87 86 86 85 87 85 86 83 82 80 81 81 80 79 85 83 85 82 80 81 82 84 84 84
87 89 82 90 91 92 90 82 94 98 97 95 96 93 93 96 97 96 96 95 94 94 89 89 91 87 85 84 83 87 83 80 77 81 81 81 81 81 80 83 82 83 81 83 83 82 83 83 83
86 80 82 83 91 90 89 85 91 95 95 94 94 92 91 93 94 95 96 95 94 93 89 87 88 87 84 80 80 80 75 76 75 77 80 80 81 81 79 82 81 78 82 82 82 81 80 80 80
79 81 81 81 88 89 86 85 90 92 91 91 92 92 92 91 91 94 95 95 94 92 89 87 87 85 78 76 74 74 74 77 77 75 79 79 81 80 78 81 78 78 81 81 81 78 81 78 80
84 82 80 83 87 86 83 83 86 90 91 89 90 92 92 91 92 93 94 95 93 91 88 85 84 78 77 75 74 68 71 73 74 72 73 78 79 79 77 79 78 78 78 78 76 77 74 77 79
83 80 80 83 86 85 83 81 85 88 87 89 88 89 90 92 91 90 91 93 92 89 87 83 83 76 77 77 74 73 73 70 71 70 66 70 73 77 77 75 76 75 78 75 74 74 76 77 78
82 81 79 79 83 87 84 79 73 86 89 90 89 90 90 89 90 89 89 90 92 85 85 84 76 75 75 76 73 66 66 64 63 62 61 63 66 73 74 74 74 73 74 76 73 73 72 74 77
78 85 82 80 78 72 82 69 67 83 84 86 87 87 88 87 88 89 89 88 89 85 79 74 73 74 75 76 72 68 72 67 67 62 60 61 64 71 74 72 73 73 77 74 74 75 74 71 73
80 86 83 81 79 77 78 74 73 74 80 82 85 87 88 87 86 86 86 81 81 80 79 76 76 75 75 76 76 73 72 74 65 61 59 60 62 67 72 73 73 71 72 72 71 71 70 75 73
87 83 83 83 81 69 75 75 60 51 78 82 87 87 87 87 85 83 80 79 81 82 79 77 75 75 75 77 74 73 74 71 65 64 61 63 66 70 72 73 71 71 72 71 72 72 71 71 72
84 78 68 64 65 60 77 74 72 78 84 86 85 87 87 88 86 84 82 79 79 78 76 78 78 76 74 74 71 71 72 71 68 66 68 69 70 69 69 70 70 71 71 71 72 70 71 71 71
80 78 70 58 62 63 77 69 74 86 88 89 89 88 88 86 86 84 84 84 81 80 80 80 79 78 78 71 72 72 73 70 70 68 73 71 74 74 72 71 71 73 72 72 71 70 72 71 70
79 75 82 72 74 69 75 77 83 86 86 87 88 87 87 87 87 87 88 89 89 88 86 85 80 78 80 78 75 74 74 71 71 72 71 68 70 76 73 72 72 72 72 70 69 71 69 68 68
82 84 71 74 59 58 69 70 75 78 81 86 86 87 87 88 89 86 85 85 87 87 89 85 82 81 79 76 75 76 74 71 70 66 63 64 66 69 72 71 72 72 71 69 68 68 68 67 69
80 76 76 74 71 63 61 67 83 82 85 85 88 90 89 88 88 86 86 87 89 90 92 88 85 81 77 79 79 76 74 70 67 63 63 62 64 66 67 72 72 71 69 69 67 68 70 67 66
81 78 76 68 65 71 68 68 87 86 87 87 88 90 91 87 88 89 90 89 91 90 91 90 86 85 80 79 76 72 71 69 66 64 64 63 64 65 65 67 71 70 72 70 66 65 68 65 64
MSLP
1009.89 1009.21 1007.94 1005.94 1004.46 1001.02 1000.93 1001.76 1002.82 1002.65 1002.69 1003.98 1004.31 1004.25 1004.72 1005.46 1006.11 1008.02 1008.96 1009.07 1009.57 1011.14 1013.12 1013.94 1014.66 1015.00 1015.29 1015.52 1015.72 1015.94 1016.07 1016.15 1016.05 1016.02 1016.12 1016.20 1016.10 1016.35 1016.31 1016.34 1016.38 1016.40 1016.31 1016.21 1016.15 1016.00 1015.77 1015.63 1015.49
1008.27 1007.56 1006.72 1004.64 1002.11 999.93 1000.78 1001.65 1002.09 1002.55 1003.74 1004.21 1004.84 1004.41 1004.62 1005.89 1007.14 1008.33 1009.05 1009.43 1010.06 1011.42 1012.87 1013.85 1014.81 1015.11 1015.47 1015.74 1015.90 1016.08 1016.17 1016.24 1016.31 1016.41 1016.56 1016.72 1016.63 1016.74 1016.63 1016.65 1016.66 1016.59 1016.52 1016.39 1016.31 1016.25 1016.10 1015.94 1015.74
1009.07 1007.48 1005.89 1002.99 1000.62 999.60 1000.70 1001.77 1002.11 1003.11 1004.00 1004.25 1004.22 1005.19 1005.48 1006.83 1007.70 1008.14 1008.92 1009.71 1010.18 1011.63 1012.60 1014.19 1014.93 1015.34 1015.69 1015.94 1016.15 1016.22 1016.32 1016.44 1016.61 1016.73 1016.81 1016.88 1016.90 1017.00 1017.07 1016.91 1016.90 1016.69 1016.63 1016.52 1016.41 1016.41 1016.28 1016.08 1015.86
1007.27 1006.35 1005.27 1002.59 1000.00 1000.73 1001.35 1002.16 1002.62 1002.94 1004.09 1004.28 1004.38 1004.90 1006.94 1007.99 1008.03 1008.57 1009.62 1009.90 1010.82 1011.72 1012.52 1014.75 1015.22 1015.56 1015.85 1016.03 1016.27 1016.41 1016.60 1016.80 1016.92 1017.00 1017.13 1017.11 1017.12 1017.28 1017.23 1017.21 1017.08 1016.82 1016.82 1016.77 1016.71 1016.56 1016.34 1016.25 1016.07
1007.02 1005.19 1003.00 1001.27 1000.34 1001.09 1001.61 1002.58 1002.69 1002.92 1003.69 1003.54 1004.36 1005.21 1006.98 1008.17 1008.64 1009.34 1009.69 1010.17 1010.78 1011.32 1012.97 1014.57 1015.37 1015.74 1016.00 1016.18 1016.30 1016.61 1016.78 1017.12 1017.39 1017.36 1017.34 1017.45 1017.47 1017.41 1017.30 1017.38 1017.33 1017.18 1017.10 1016.93 1016.88 1016.81 1016.65 1016.47 1016.25
1005.54 1004.07 1002.08 1000.06 1000.06 1001.64 1001.46 1002.15 1002.38 1002.40 1002.68 1003.72 1004.24 1004.93 1007.01 1008.37 1008.87 1009.35 1009.60 1009.80 1010.46 1011.08 1012.56 1014.55 1015.55 1015.93 1016.13 1016.38 1016.54 1016.87 1017.19 1017.37 1017.47 1017.57 1017.66 1017.77 1017.72 1017.61 1017.58 1017.65 1017.61 1017.47 1017.26 1017.16 1017.12 1017.07 1017.02 1016.76 1016.52
1004.99 1002.93 1001.36 1000.06 1000.22 1001.07 1001.63 1002.27 1001.90 1002.35 1002.68 1002.91 1003.81 1003.71 1007.11 1008.09 1008.48 1008.94 1009.37 1009.57 1010.26 1010.78 1012.00 1013.80 1014.85 1015.89 1016.37 1016.55 1016.83 1017.27 1017.47 1017.64 1017.65 1017.85 1018.03 1018.07 1017.84 1017.99 1017.78 1017.97 1017.89 1017.80 1017.62 1017.46 1017.38 1017.36 1017.17 1016.96 1016.69
1004.63 1003.26 1001.52 1000.73 1000.35 1001.01 1002.24 1002.09 1002.74 1002.60 1001.79 1003.62 1003.77 1002.36 1006.20 1007.60 1008.35 1008.81 1009.02 1009.52 1010.10 1010.73 1011.35 1012.52 1013.98 1015.06 1015.50 1016.30 1017.15 1017.48 1017.63 1017.80 1018.08 1018.31 1018.19 1018.04 1017.81 1017.88 1017.99 1018.05 1018.16 1018.07 1018.00 1017.84 1017.69 1017.53 1017.37 1017.22 1016.69
1005.20 1003.37 1001.15 1000.38 1000.81 1000.81 1001.92 1001.44 1002.42 1003.21 1002.97 1003.65 1004.15 1004.66 1005.73 1007.50 1008.19 1008.60 1008.81 1009.27 1009.86 1010.59 1011.08 1011.52 1013.03 1014.05 1014.14 1015.16 1016.97 1017.56 1017.74 1018.06 1018.29 1018.25 1018.12 1017.98 1016.65 1017.23 1017.46 1018.49 1018.51 1018.44 1018.32 1018.21 1017.85 1017.56 1017.26 1017.19 1016.76
1004.46 1002.76 1000.94 1000.86 1001.09 1001.37 1001.72 1001.96 1002.19 1002.64 1002.50 1003.04 1004.16 1005.48 1006.35 1007.65 1008.01 1008.32 1008.71 1009.09 1009.75 1010.60 1011.13 1011.49 1012.88 1013.21 1013.28 1014.36 1016.48 1016.53 1016.94 1017.10 1017.14 1017.08 1017.39 1016.75 1017.37 1017.63 1017.66 1018.46 1018.54 1018.53 1018.43 1018.10 1017.76 1017.34 1016.76 1016.59 1015.51
1003.98 1002.61 1001.67 1002.24 1002.66 1002.46 1002.18 1001.94 1002.11 1002.23 1001.55 1001.96 1002.98 1004.77 1006.37 1007.29 1007.92 1008.33 1008.78 1009.20 1009.75 1010.60 1011.35 1011.78 1013.21 1013.43 1013.29 1013.98 1015.42 1015.53 1016.04 1016.64 1017.11 1017.47 1017.30 1017.66 1017.51 1017.61 1017.29 1017.53 1017.79 1017.68 1017.95 1017.33 1017.27 1016.80 1016.69 1016.42 1015.91
1003.77 1003.36 1002.98 1002.61 1002.68 1002.81 1002.27 1001.94 1002.03 1001.95 1001.98 1002.71 1003.19 1004.22 1006.18 1007.23 1007.84 1008.29 1008.85 1009.39 1010.21 1011.23 1011.75 1012.29 1013.46 1014.06 1014.00 1014.17 1015.10 1015.26 1015.76 1016.53 1016.42 1017.22 1017.61 1017.83 1017.41 1017.72 1017.69 1017.35 1017.35 1017.39 1017.17 1017.25 1016.98 1017.43 1017.55 1017.02 1016.65
1004.09 1003.23 1003.37 1003.18 1003.18 1002.84 1002.64 1002.33 1001.92 1001.72 1001.78 1002.57 1003.55 1003.90 1005.74 1006.54 1007.28 1007.91 1008.66 1009.51 1010.13 1011.14 1012.01 1012.89 1013.75 1014.48 1014.77 1015.05 1015.05 1015.51 1016.08 1016.34 1016.97 1017.14 1017.65 1017.49 1017.56 1018.07 1017.88 1018.00 1017.55 1017.58 1017.32 1017.43 1017.32 1017.59 1017.32 1017.24 1017.12
1003.79 1003.63 1003.30 1003.07 1002.86 1002.76 1002.77 1002.31 1002.25 1001.78 1002.43 1002.37 1003.65 1003.93 1005.05 1005.89 1006.79 1007.67 1008.47 1009.22 1010.03 1010.96 1012.17 1012.99 1013.74 1014.63 1014.96 1015.43 1015.65 1016.21 1016.68 1017.15 1017.12 1017.70 1018.15 1018.09 1017.89 1018.25 1018.04 1018.00 1017.68 1017.65 1017.60 1017.53 1017.45 1017.41 1017.31 1017.15 1017.20
1004.09 1003.69 1003.10 1002.96 1002.84 1002.73 1002.98 1002.49 1002.09 1001.87 1002.56 1002.75 1003.51 1004.22 1004.66 1005.64 1006.43 1007.32 1008.14 1008.80 1009.67 1010.64 1011.98 1012.85 1013.57 1014.33 1015.01 1015.42 1015.98 1016.08 1016.70 1016.85 1017.61 1017.97 1018.35 1018.46 1018.42 1018.50 1018.68 1017.85 1017.78 1017.76 1018.17 1018.30 1018.08 1017.91 1017.67 1017.30 1017.25
1003.55 1002.89 1001.77 1002.57 1002.81 1002.85 1003.47 1001.58 1000.97 1002.03 1002.41 1002.65 1002.96 1004.49 1005.15 1005.53 1006.21 1007.12 1007.87 1008.75 1009.62 1010.24 1011.54 1012.55 1013.06 1013.67 1014.36 1014.83 1015.44 1015.64 1016.57 1016.88 1017.62 1017.85 1018.23 1018.44 1018.44 1018.61 1018.53 1017.98 1018.14 1018.13 1018.16 1017.80 1017.62 1017.69 1017.42 1017.41 1017.42
1002.47 1001.01 1001.17 1002.37 1002.84 1002.56 1002.77 1001.54 1002.24 1002.85 1002.70 1002.84 1003.32 1004.74 1005.58 1005.70 1006.32 1007.00 1007.78 1008.71 1009.54 1010.18 1011.24 1011.97 1012.47 1013.13 1014.07 1014.84 1014.72 1014.32 1015.54 1016.83 1017.48 1017.05 1017.53 1018.41 1018.35 1018.57 1018.77 1018.20 1018.38 1018.98 1018.01 1017.77 1017.69 1017.78 1017.72 1017.76 1017.66
1001.08 1001.04 1001.86 1001.81 1002.59 1002.49 1002.32 1002.27 1002.77 1003.12 1003.26 1003.43 1003.96 1004.66 1005.31 1005.95 1006.58 1007.10 1007.75 1008.60 1009.50 1010.37 1011.38 1012.16 1012.85 1013.49 1014.51 1014.90 1015.53 1016.20 1016.91 1017.20 1017.75 1018.02 1017.20 1017.97 1018.29 1018.64 1018.83 1018.44 1018.76 1018.91 1018.07 1017.83 1017.83 1018.09 1018.01 1018.07 1017.68
1002.23 1001.85 1001.59 1002.58 1003.22 1002.66 1002.96 1003.12 1003.66 1003.83 1003.75 1004.05 1004.34 1004.53 1004.69 1005.51 1006.62 1007.39 1007.80 1008.51 1009.41 1010.39 1011.21 1012.06 1012.86 1013.91 1014.91 1015.47 1016.04 1017.10 1017.07 1017.40 1017.66 1017.87 1017.67 1017.21 1018.21 1018.87 1018.81 1018.53 1018.68 1018.74 1018.46 1018.20 1018.52 1018.58 1018.68 1018.10 1018.23
1002.69 1002.20 1002.08 1003.12 1003.55 1003.16 1003.02 1003.55 1004.44 1004.44 1004.48 1004.97 1005.19 1005.35 1005.25 1005.16 1006.31 1007.66 1008.12 1008.58 1009.40 1010.34 1011.45 1012.35 1013.00 1014.47 1015.32 1015.96 1016.65 1016.85 1017.35 1017.87 1018.31 1018.54 1019.00 1017.89 1018.38 1018.98 1018.86 1018.89 1018.67 1018.81 1018.57 1018.98 1018.78 1018.78 1018.31 1018.16 1018.36
1002.67 1002.10 1002.49 1002.80 1003.36 1003.48 1003.27 1003.46 1005.64 1004.97 1004.65 1004.88 1005.67 1005.88 1006.16 1006.36 1006.19 1007.57 1008.47 1008.92 1009.31 1010.40 1011.57 1012.50 1013.97 1015.12 1015.61 1016.17 1016.63 1017.34 1017.91 1018.36 1018.52 1018.72 1019.15 1019.11 1019.13 1019.08 1019.19 1018.99 1019.12 1019.11 1019.04 1018.75 1019.01 1018.94 1018.73 1018.14 1018.19
1002.17 1003.24 1003.46 1003.32 1003.31 1002.44 1003.77 1003.50 1005.55 1004.01 1004.58 1004.96 1005.62 1006.19 1006.68 1007.19 1007.67 1008.01 1008.67 1009.47 1009.96 1010.44 1011.88 1013.46 1014.67 1015.28 1015.56 1015.94 1016.48 1016.96 1016.89 1017.50 1017.95 1018.71 1019.39 1019.65 1019.21 1019.20 1019.12 1019.05 1019.12 1019.11 1018.71 1018.82 1018.87 1018.89 1018.78 1018.86 1018.10
1003.31 1003.74 1003.56 1003.43 1003.28 1003.01 1002.92 1003.56 1005.86 1006.97 1004.77 1005.73 1005.71 1006.48 1007.13 1008.09 1008.68 1009.11 1009.63 1010.87 1011.59 1012.30 1013.06 1013.99 1014.62 1014.99 1015.36 1015.78 1016.05 1016.50 1016.46 1016.53 1018.07 1018.89 1019.47 1019.60 1019.84 1019.39 1019.03 1018.98 1019.12 1019.33 1019.34 1019.20 1019.09 1019.15 1019.23 1018.64 1018.68
1004.09 1003.85 1003.48 1003.19 1002.45 1002.63 1003.07 1003.81 1006.97 1008.05 1005.62 1005.81 1005.77 1006.65 1007.47 1008.19 1009.18 1010.16 1011.32 1011.85 1012.01 1012.75 1013.52 1014.05 1014.44 1014.66 1015.08 1015.46 1015.95 1016.10 1016.03 1016.56 1017.61 1018.25 1018.88 1018.91 1019.07 1018.84 1018.80 1018.96 1019.13 1019.38 1019.27 1019.44 1019.23 1019.22 1019.37 1019.40 1019.14
1003.97 1003.47 1002.58 1002.90 1002.20 1003.00 1003.61 1003.53 1004.52 1005.24 1005.42 1005.50 1005.82 1006.65 1007.69 1008.40 1009.21 1009.95 1010.75 1011.72 1012.08 1012.95 1013.56 1013.89 1014.14 1014.32 1014.82 1015.37 1015.90 1016.16 1016.17 1016.45 1017.17 1017.81 1017.87 1017.81 1017.82 1017.97 1018.36 1018.54 1018.83 1019.16 1019.17 1019.16 1019.03 1019.35 1019.34 1019.68 1019.58
1003.41 1003.71 1002.75 1002.20 1002.01 1003.04 1003.19 1002.64 1003.68 1004.43 1005.09 1005.45 1006.10 1006.88 1007.63 1008.44 1009.22 1009.83 1010.40 1010.93 1011.70 1012.44 1012.82 1012.99 1013.36 1013.69 1013.90 1014.87 1015.14 1015.65 1015.77 1016.21 1016.52 1016.97 1016.97 1017.58 1017.32 1017.48 1017.73 1018.23 1018.45 1018.47 1018.80 1019.05 1019.08 1019.30 1019.38 1019.55 1019.97
1003.75 1003.81 1003.90 1003.61 1003.21 1002.90 1001.98 1002.67 1003.36 1004.09 1004.57 1005.11 1005.59 1006.48 1007.25 1008.01 1008.74 1009.22 1009.75 1010.03 1010.24 1010.63 1011.33 1011.96 1012.57 1013.20 1013.37 1013.79 1014.37 1015.05 1015.45 1015.94 1015.98 1016.20 1016.81 1017.23 1017.20 1016.78 1017.51 1018.04 1018.33 1018.44 1018.53 1018.97 1019.06 1019.10 1019.29 1019.70 1020.15
1004.66 1004.79 1004.45 1004.16 1003.60 1002.89 1001.98 1002.36 1001.92 1003.56 1003.97 1004.46 1005.08 1005.74 1006.92 1007.62 1008.16 1009.25 1009.90 1010.23 1010.50 1010.78 1010.71 1011.55 1012.16 1012.56 1012.94 1013.62 1014.09 1014.22 1014.91 1015.48 1015.86 1016.58 1017.05 1017.36 1017.27 1016.93 1017.13 1017.75 1017.94 1018.21 1018.62 1018.94 1018.88 1019.33 1019.60 1019.65 1019.82
1004.73 1004.57 1005.18 1005.39 1005.10 1004.08 1003.26 1002.49 1002.74 1003.14 1003.64 1004.09 1004.36 1004.84 1006.00 1007.12 1007.86 1008.91 1009.51 1009.96 1009.91 1009.96 1010.05 1010.72 1011.47 1012.29 1013.01 1013.20 1013.37 1013.90 1014.55 1015.30 1015.91 1016.39 1016.72 1016.89 1017.12 1017.11 1017.28 1017.65 1017.91 1018.10 1018.39 1018.59 1018.85 1018.73 1018.83 1019.47 1019.56
1005.77 1005.25 1005.30 1005.35 1005.23 1005.03 1004.64 1003.60 1003.12 1003.87 1004.08 1004.59 1004.72 1004.84 1005.70 1007.30 1008.08 1008.53 1008.63 1009.29 1009.50 1009.61 1009.78 1010.12 1011.12 1011.46 1012.29 1013.02 1013.47 1014.04 1014.54 1015.11 1015.57 1016.00 1016.37 1016.71 1017.02 1017.15 1017.28 1017.37 1017.56 1017.90 1017.88 1018.18 1018.63 1018.92 1018.59 1019.29 1019.35
Wind_Speed
10 12 13 10 10 10 10 10 4 2 7 9 7 15 8 14 15 6 10 7 14 20 17 16 13 12 11 11 10 9 9 8 8 13 12 11 11 10 10 9 10 9 9 10 10 10 9 10 10
13 10 10 10 13 4 8 9 7 14 9 6 5 5 11 17 14 10 13 12 17 18 15 15 13 12 12 11 10 10 10 9 13 12 12 10 11 10 9 10 9 10 10 11 11 11 11 11 11
14 11 11 14 12 10 12 5 8 12 9 2 4 2 10 11 9 7 19 15 18 17 15 17 13 13 12 11 11 10 10 12 12 12 12 11 11 11 10 10 9 9 10 10 11 12 12 11 10
8 9 10 12 8 13 8 4 10 13 7 3 5 13 10 6 5 9 17 16 16 17 18 16 14 13 13 12 11 12 11 11 11 12 11 11 11 9 9 9 9 11 9 10 10 11 12 12 11
9 9 13 14 3 4 4 4 2 7 5 7 5 14 11 9 12 17 16 15 15 16 19 16 14 13 12 11 10 13 12 11 11 11 11 10 9 9 9 10 9 10 9 9 10 11 11 11 12
9 11 13 13 10 5 1 2 1 7 5 12 8 10 11 12 15 14 15 15 15 15 18 15 13 12 11 10 13 12 11 11 11 9 8 8 8 10 9 9 9 8 9 10 10 10 10 10 11
14 12 16 9 9 11 9 2 3 6 8 5 2 11 11 14 15 15 14 14 14 15 18 15 14 12 10 12 13 11 11 10 9 8 6 7 9 8 9 9 8 9 9 10 10 9 8 8 8
12 12 19 6 6 14 8 7 8 7 16 8 6 9 15 13 16 15 14 14 14 13 16 17 16 14 13 12 11 11 11 10 8 6 7 10 10 9 7 12 8 8 9 9 7 4 3 3 2
10 10 12 13 2 12 8 3 7 4 3 3 7 7 13 18 16 15 14 14 13 11 12 15 15 14 14 15 11 10 10 9 8 8 6 10 3 9 10 10 5 7 7 5 2 4 4 5 4
11 11 9 9 8 4 3 2 5 3 9 7 8 9 18 17 16 15 14 13 14 12 11 12 10 12 11 12 11 10 9 9 8 4 4 5 6 8 9 7 7 5 4 6 5 8 12 15 1
12 14 4 3 5 6 6 7 4 4 8 6 11 15 17 16 14 13 12 12 13 12 9 11 8 6 7 9 8 5 5 4 4 2 3 5 1 2 4 7 8 7 12 7 7 4 7 8 6
10 9 6 8 5 10 10 6 4 6 4 8 5 21 15 14 13 13 12 11 13 11 11 8 12 8 4 7 5 5 4 3 3 6 1 2 3 0 5 5 1 4 4 2 3 5 4 6 7
9 3 6 8 8 11 8 10 8 9 6 12 2 15 16 14 14 13 14 13 13 15 13 10 12 8 5 1 3 1 5 2 5 2 5 4 4 3 4 3 5 5 2 2 1 4 2 5 7
3 4 6 8 12 11 11 10 4 3 5 5 5 10 14 13 14 13 14 15 14 15 14 14 12 10 9 6 4 4 3 4 4 4 5 2 4 2 1 2 2 2 3 2 2 1 1 3 6
6 10 12 9 9 8 6 11 12 9 3 5 6 7 10 10 13 13 14 15 14 15 16 15 13 13 10 7 6 4 5 5 3 3 4 2 3 2 7 2 4 1 2 2 2 3 1 2 4
12 13 11 9 5 7 9 15 17 7 5 7 8 6 3 10 13 12 13 13 13 14 17 16 14 17 14 10 7 5 6 6 5 2 3 0 1 1 4 3 4 3 3 4 3 5 2 1 2
11 10 12 8 1 2 10 12 10 4 5 6 9 5 7 8 9 13 14 14 15 14 17 17 16 18 15 12 10 12 11 4 5 7 4 3 2 1 5 3 2 4 4 3 3 2 4 2 4
7 6 2 5 6 6 3 9 8 4 2 1 4 8 6 9 10 11 13 15 14 13 14 14 12 14 15 11 7 5 6 6 5 3 4 5 3 2 3 1 3 7 4 2 2 3 1 6 4
5 6 5 7 4 9 5 7 10 10 10 7 4 1 4 8 10 8 11 13 14 14 14 14 13 16 12 9 7 2 6 6 5 3 2 6 3 4 2 4 3 5 5 3 2 3 4 4 3
5 5 7 5 2 15 7 8 7 10 12 10 9 9 7 4 12 8 8 12 14 14 13 12 13 14 11 7 4 2 3 3 4 3 4 2 3 5 4 3 3 3 0 4 4 3 5 4 3
1 10 5 4 8 10 9 8 9 11 11 13 12 12 13 10 4 11 7 8 11 10 12 10 11 10 8 8 4 6 6 4 4 3 1 4 2 5 4 3 4 1 7 5 4 4 4 6 1
10 4 5 6 10 7 4 5 10 9 12 11 13 12 15 15 12 9 7 5 2 6 11 11 8 8 8 9 6 7 6 6 6 4 3 3 5 6 5 3 4 4 5 1 5 3 4 3 5
9 4 7 7 11 8 12 8 9 29 14 10 11 11 13 14 12 11 11 10 10 10 9 7 9 11 9 9 6 7 7 5 5 6 7 4 4 8 7 6 4 2 6 1 3 2 3 3 6
5 9 11 11 13 9 2 9 11 10 5 8 11 13 12 12 12 12 10 5 6 6 5 6 7 9 8 7 7 9 7 7 8 9 8 9 8 9 8 7 6 5 2 4 3 2 2 5 5
7 11 10 10 8 10 3 7 9 15 7 9 8 11 12 10 10 9 9 7 7 8 6 6 7 9 9 9 8 9 9 9 9 11 10 11 10 8 9 8 6 6 6 5 4 3 3 2 5
4 8 9 8 5 6 7 2 9 11 6 8 8 10 8 9 8 7 7 11 9 10 11 9 9 9 10 10 10 9 9 6 7 10 9 9 8 8 11 9 10 9 8 6 5 5 4 3 4
6 9 9 10 8 7 4 7 11 7 8 5 9 5 7 7 5 5 5 3 4 8 8 9 7 8 8 9 5 9 8 10 9 10 10 5 7 7 11 11 9 9 8 6 5 4 4 2 3
10 8 6 8 4 13 4 4 4 13 7 8 7 10 6 3 8 6 3 3 1 2 4 3 1 5 6 8 8 8 8 7 6 5 7 6 4 6 10 11 11 10 8 7 6 4 5 5 5
7 9 4 5 7 10 9 7 10 6 6 2 7 8 7 4 5 5 5 6 5 5 3 5 5 6 5 5 5 5 5 6 6 7 8 6 4 4 4 10 11 10 10 9 8 7 4 7 4
7 13 2 6 4 6 6 12 6 1 3 5 11 2 4 2 6 7 5 4 1 4 5 3 3 5 8 5 5 5 7 7 9 10 10 8 7 6 7 8 10 10 12 11 7 7 8 6 9
Wind_Direction
221 228 243 263 244 231 111 91 6 113 116 62 45 15 21 41 6 67 141 130 128 116 129 141 136 132 134 130 122 122 122 116 110 87 83 79 75 69 65 57 50 49 48 43 34 27 25 21 18
239 246 252 273 251 224 98 56 329 61 70 83 82 264 35 74 66 113 132 136 120 123 142 132 138 139 135 132 133 136 132 119 93 86 80 79 75 71 71 66 60 50 41 37 33 23 19 13 12
254 258 274 251 262 30 77 27 47 92 107 105 130 46 23 50 67 132 112 145 123 129 140 124 139 143 138 138 143 145 122 102 94 91 89 85 80 76 69 66 57 51 45 41 33 21 15 12 15
227 222 238 259 266 79 62 25 105 122 90 320 331 86 109 46 116 108 143 140 130 139 132 135 138 140 143 145 150 124 110 102 104 102 97 92 86 80 77 68 63 59 49 41 38 38 32 27 26
241 262 258 237 108 47 78 87 319 92 158 116 347 80 79 89 107 131 142 142 148 148 118 138 137 142 145 150 144 121 111 113 116 109 102 95 87 87 84 78 57 51 46 53 52 45 39 33 26
233 249 258 239 124 42 228 191 83 214 92 120 147 133 90 124 138 146 154 155 149 144 133 134 137 144 144 152 119 108 124 131 126 114 106 99 96 93 83 71 59 56 66 63 51 39 32 32 26
254 238 260 317 70 189 37 286 223 23 154 61 360 86 113 158 148 152 165 148 150 146 137 148 147 141 147 128 115 132 133 129 123 117 115 119 107 99 90 78 68 74 71 60 46 35 35 36 27
270 278 264 258 184 93 93 235 53 259 73 61 296 25 139 150 154 151 162 153 152 157 139 153 141 159 164 149 131 136 133 131 122 119 135 141 133 139 120 134 75 76 69 59 49 31 25 18 41
239 255 252 234 180 107 149 302 113 75 276 188 69 33 125 145 158 163 163 159 156 158 156 151 149 161 176 140 133 143 143 140 147 160 180 191 211 179 121 62 78 75 77 73 29 304 241 227 216
238 235 263 20 41 50 21 345 42 273 174 159 144 94 126 152 167 167 166 164 159 164 164 134 150 158 167 134 149 167 158 182 191 163 205 237 32 32 71 106 122 127 162 172 211 252 274 199 347
215 263 340 57 259 314 314 262 60 249 244 140 165 134 148 164 167 167 166 169 156 162 152 142 146 155 151 135 176 164 157 132 120 122 274 43 97 176 221 145 173 169 196 218 202 28 35 26 28
262 248 306 250 166 242 256 351 273 265 339 71 43 133 154 166 166 172 167 164 149 175 151 142 152 160 190 127 203 140 128 140 169 75 54 90 238 197 349 356 11 259 40 305 32 75 47 48 51
249 252 234 250 256 243 272 277 289 281 18 122 121 137 157 173 169 172 163 164 164 171 160 169 145 157 169 109 147 77 93 144 73 167 62 6 349 11 337 360 338 332 344 124 93 56 30 97 58
99 297 268 230 230 228 245 247 252 171 16 137 137 150 161 173 170 165 168 165 176 167 162 161 163 157 165 189 104 114 57 123 63 40 42 11 333 12 338 236 291 357 334 347 252 88 95 77 104
250 247 209 214 219 247 276 255 247 252 323 298 140 157 151 170 164 173 178 168 181 167 160 156 174 160 162 167 160 164 134 119 100 75 65 24 335 83 317 329 288 353 49 311 284 243 232 136 118
241 222 210 117 257 151 238 258 207 94 253 275 148 99 183 166 168 172 179 174 172 172 160 165 176 165 164 155 163 157 121 116 139 166 171 217 122 307 269 281 330 9 247 234 217 247 247 254 124
209 246 116 127 329 154 221 250 65 350 290 272 101 126 199 169 180 172 179 176 171 171 166 179 177 165 161 146 159 167 158 153 166 158 174 157 156 240 296 299 3 270 260 253 240 244 303 117 282
122 113 129 112 120 234 226 47 31 27 259 143 219 177 198 182 189 185 183 178 172 172 175 178 176 158 149 153 147 170 142 153 155 175 196 158 195 216 269 352 312 276 253 210 250 346 253 319 284
19 342 38 76 71 283 42 76 65 57 55 56 11 298 184 182 168 189 188 181 179 178 174 178 180 145 166 164 169 165 172 167 168 172 167 135 213 224 210 273 210 263 277 349 168 218 208 250 280
245 239 132 98 204 274 141 131 103 102 92 77 60 53 35 89 139 170 193 193 185 181 176 178 172 168 171 169 176 70 149 212 164 139 326 74 119 248 245 311 313 335 223 258 213 250 293 241 273
8 340 80 299 152 258 277 155 1 139 116 100 76 65 64 48 127 155 183 205 198 166 173 186 141 171 178 198 128 100 94 122 161 163 61 345 323 251 251 227 297 266 289 183 209 212 256 292 199
138 56 292 250 245 258 209 281 159 147 111 85 80 60 64 62 58 70 141 156 309 112 79 92 138 183 200 181 167 191 212 197 203 158 145 229 231 242 223 209 225 231 282 121 193 209 297 241 274
58 344 283 300 263 294 219 260 129 343 95 71 70 73 75 72 64 71 54 71 78 93 115 143 192 192 182 185 216 203 234 213 139 154 174 200 254 251 228 199 203 219 261 109 345 97 248 269 300
356 250 233 234 229 229 126 300 133 156 355 93 88 83 73 75 84 83 83 74 98 108 143 182 204 192 183 194 215 222 222 180 170 176 183 196 204 208 210 196 191 199 187 187 186 166 230 300 330
231 250 242 249 239 156 229 291 85 194 96 76 73 93 87 83 85 97 122 138 135 143 163 183 211 219 186 192 205 222 231 222 204 192 203 193 194 189 192 199 188 189 215 180 157 176 126 259 289
298 334 308 296 337 150 172 302 77 92 117 101 98 96 101 111 110 109 139 145 160 171 198 194 187 219 196 187 196 209 226 219 207 192 208 206 208 200 170 191 191 202 181 189 176 188 227 192 260
155 245 18 311 255 265 211 124 173 161 157 161 136 118 127 125 125 116 125 140 54 161 182 210 177 210 218 228 196 209 221 224 213 210 198 215 232 191 172 193 198 199 193 171 171 241 169 47 257
286 11 245 222 218 263 141 195 190 167 189 182 187 172 141 172 150 106 95 75 75 198 196 107 337 218 217 204 213 210 199 215 224 174 186 224 268 276 158 196 198 193 193 207 178 186 184 205 254
179 212 234 329 318 320 303 62 62 131 161 297 209 178 139 192 73 142 164 173 213 202 193 141 179 174 213 248 229 205 201 206 185 194 200 194 221 240 183 212 201 197 201 196 197 207 245 196 219
284 290 297 279 229 255 312 295 130 358 246 227 279 14 219 83 182 218 182 138 14 23 33 91 141 229 176 196 219 206 191 201 202 208 203 194 217 216 213 194 215 213 211 203 196 214 206 227 215